EW0139 Weather Reports


time (UTC)temp
C
wind
direction
speed
KPH
gust
KPH
rain 1hr
cm
rain 24hr
cm
rain mn
cm
humidity
%
barometer
mb
20260507060754 2 44 4.8 6.4 0.00 0.00 0.00 50 1008.7
20260507055753 2 44 4.8 6.4 0.00 0.00 0.00 47 1008.6
20260507054756 3 61 3.2 6.4 0.00 0.00 0.00 45 1008.5
20260507053743 4 62 4.8 6.4 0.00 0.00 0.00 44 1008.4
20260507052747 4 61 0.0 4.8 0.00 0.00 0.00 40 1008.4
20260507051747 5 62 0.0 4.8 0.00 0.00 0.00 40 1008.4
20260507050747 5 62 0.0 4.8 0.00 0.00 0.00 39 1008.4
20260507045751 5 62 3.2 8.0 0.00 0.00 0.00 39 1008.5
20260507044752 3 61 0.0 4.8 0.00 0.00 0.00 41 1008.4
20260507043811 5 61 4.8 4.8 0.00 0.00 0.00 42 1008.4
20260507042750 5 61 1.6 6.4 0.00 0.00 0.00 37 1008.3
20260507041753 6 61 3.2 9.7 0.00 0.00 0.00 36 1008.3
20260507040757 6 86 6.4 8.0 0.00 0.00 0.00 35 1008.3
20260507035800 7 90 9.7 12.9 0.00 0.00 0.00 35 1008.3
20260507034743 6 79 0.0 8.0 0.00 0.00 0.00 35 1008.4
20260507033745 7 78 6.4 9.7 0.00 0.00 0.00 35 1008.4
20260507032744 7 82 4.8 8.0 0.00 0.00 0.00 35 1008.5
20260507031808 7 82 6.4 9.7 0.00 0.00 0.00 34 1008.5
20260507030748 7 69 6.4 9.7 0.00 0.00 0.00 34 1008.6
20260507025747 7 67 3.2 8.0 0.00 0.00 0.00 33 1008.5
20260507024747 8 9 0.0 6.4 0.00 0.00 0.00 33 1008.6
20260507023747 8 9 3.2 8.0 0.00 0.00 0.00 31 1008.6
20260507022750 9 9 4.8 9.7 0.00 0.00 0.00 30 1008.7
20260507021815 9 9 3.2 4.8 0.00 0.00 0.00 31 1008.7
20260507020754 10 9 1.6 4.8 0.00 0.00 0.00 30 1008.9
20260507015818 10 9 1.6 6.4 0.00 0.00 0.00 29 1008.9
20260507014742 11 9 3.2 8.0 0.00 0.00 0.00 28 1009.1
20260507013742 12 315 0.0 4.8 0.00 0.00 0.00 27 1009.2
20260507012744 12 315 1.6 1.6 0.00 0.00 0.00 29 1009.2
20260507011747 13 315 0.0 1.6 0.00 0.00 0.00 25 1009.2
20260507010747 13 315 0.0 3.2 0.00 0.00 0.00 24 1009.3
20260507005811 13 315 4.8 11.3 0.00 0.00 0.00 27 1009.4
20260507004751 14 310 4.8 8.0 0.00 0.00 0.00 26 1009.5
20260507003752 14 317 3.2 8.0 0.00 0.00 0.00 23 1009.6
20260507002813 13 317 8.0 14.5 0.00 0.00 0.00 23 1009.6
20260507001752 13 336 1.6 14.5 0.00 0.00 0.00 24 1009.8
20260507000757 13 312 6.4 19.3 0.00 0.00 0.00 25 1009.9
20260506235756 13 320 0.0 11.3 0.00 0.00 0.00 25 1009.9
20260506234757 13 305 0.0 12.9 0.00 0.00 0.00 25 1009.9
20260506233758 13 294 12.9 12.9 0.00 0.00 0.00 25 1009.9
20260506232741 13 273 4.8 19.3 0.00 0.00 0.00 25 1010.0
20260506231744 13 306 14.5 20.9 0.00 0.00 0.00 26 1010.1
20260506230750 13 281 11.3 24.1 0.00 0.00 0.00 25 1010.3
20260506225750 13 246 4.8 19.3 0.00 0.00 0.00 26 1010.4
20260506224755 13 264 16.1 20.9 0.00 0.00 0.00 24 1010.4
20260506223755 13 250 19.3 29.0 0.00 0.00 0.00 25 1010.6
20260506222756 13 252 12.9 19.3 0.00 0.00 0.00 24 1010.7
20260506221756 13 230 4.8 19.3 0.00 0.00 0.00 25 1011.1
20260506220755 12 151 3.2 19.3 0.00 0.00 0.00 25 1011.0
20260506215742 13 171 14.5 17.7 0.00 0.00 0.00 25 1011.3
20260506214742 13 259 19.3 29.0 0.00 0.00 0.00 26 1011.4
20260506213742 12 258 9.7 17.7 0.00 0.00 0.00 26 1011.5
20260506212743 13 242 9.7 22.5 0.00 0.00 0.00 27 1011.7
20260506211748 12 254 25.7 25.7 0.00 0.00 0.00 26 1011.7
20260506210751 12 235 1.6 25.7 0.00 0.00 0.00 27 1011.9
20260506205756 12 156 8.0 12.9 0.00 0.00 0.00 27 1012.2
20260506204817 12 219 14.5 19.3 0.00 0.00 0.00 26 1012.5
20260506203743 12 213 6.4 25.7 0.00 0.00 0.00 26 1012.5
20260506202740 12 175 9.7 27.4 0.00 0.00 0.00 26 1012.6
20260506201741 11 175 9.7 24.1 0.00 0.00 0.00 26 1012.8
20260506200741 11 252 24.1 27.4 0.00 0.00 0.00 27 1012.9
20260506195746 11 197 9.7 27.4 0.00 0.00 0.00 26 1013.1
20260506194750 11 252 8.0 22.5 0.00 0.00 0.00 28 1013.2
20260506193752 12 178 22.5 22.5 0.00 0.00 0.00 29 1013.5
20260506192752 11 251 14.5 22.5 0.00 0.00 0.00 27 1013.7
20260506191752 10 296 11.3 25.7 0.00 0.00 0.00 33 1012.9
20260506190753 10 278 4.8 20.9 0.00 0.00 0.00 29 1012.9
20260506185759 10 257 4.8 24.1 0.00 0.00 0.00 29 1013.2
20260506184759 10 258 17.7 17.7 0.00 0.00 0.00 29 1013.3
20260506183800 10 319 6.4 16.1 0.00 0.00 0.00 29 1013.4
20260506182741 10 238 8.0 17.7 0.00 0.00 0.00 30 1013.7
20260506181745 10 236 4.8 20.9 0.00 0.00 0.00 29 1014.0
20260506180807 10 269 8.0 8.0 0.00 0.00 0.00 30 1014.3
20260506175746 9 240 3.2 16.1 0.00 0.00 0.00 29 1014.7
20260506174750 9 259 6.4 20.9 0.00 0.00 0.00 29 1014.7
20260506173755 10 220 19.3 20.9 0.00 0.00 0.00 31 1014.9
20260506172754 9 279 8.0 20.9 0.00 0.00 0.00 30 1015.1
20260506171737 8 334 4.8 19.3 0.00 0.00 0.00 30 1015.3
20260506170741 8 300 14.5 17.7 0.00 0.00 0.00 30 1015.5
20260506165742 8 309 6.4 22.5 0.00 0.00 0.00 29 1015.5
20260506164746 8 235 4.8 14.5 0.00 0.00 0.00 30 1015.8
20260506163751 8 230 3.2 19.3 0.00 0.00 0.00 30 1015.9
20260506162752 7 268 11.3 16.1 0.00 0.00 0.00 33 1016.1
20260506161756 7 215 6.4 17.7 0.00 0.00 0.00 31 1016.3
20260506160759 6 291 11.3 14.5 0.00 0.00 0.00 34 1016.6
20260506155759 6 212 4.8 11.3 0.00 0.00 0.00 36 1016.6
20260506154740 6 242 9.7 16.1 0.00 0.00 0.00 36 1016.6
20260506153743 5 212 6.4 9.7 0.00 0.00 0.00 39 1016.8
20260506152747 5 237 4.8 9.7 0.00 0.00 0.00 40 1016.9
20260506151808 4 270 0.0 12.9 0.00 0.00 0.00 40 1017.0
20260506150810 4 231 4.8 6.4 0.00 0.00 0.00 42 1017.0
20260506145749 3 295 0.0 6.4 0.00 0.00 0.00 45 1017.0
20260506144750 2 294 3.2 6.4 0.00 0.00 0.00 49 1016.9
20260506143753 1 331 1.6 8.0 0.00 0.00 0.00 48 1017.0
20260506142754 1 294 3.2 4.8 0.00 0.00 0.00 51 1017.2
20260506141756 0 294 3.2 6.4 0.00 0.00 0.00 52 1017.3
20260506140756 0 309 0.0 6.4 0.00 0.00 0.00 54 1017.4
20260506135740 -1 310 0.0 4.8 0.00 0.00 0.00 58 1017.6
20260506134801 -2 310 0.0 4.8 0.00 0.00 0.00 62 1017.6
20260506133759 -2 310 3.2 4.8 0.00 0.00 0.00 64 1017.8
20260506132741 -3 309 3.2 3.2 0.00 0.00 0.00 65 1017.8
20260506131743 -4 310 0.0 0.0 0.00 0.00 0.00 68 1017.8
20260506130748 -5 310 0.0 0.0 0.00 0.00 0.00 70 1017.7
20260506125748 -6 310 0.0 0.0 0.00 0.00 0.00 71 1017.8
20260506124749 -7 310 0.0 0.0 0.00 0.00 0.00 73 1017.8
20260506123750 -8 310 0.0 0.0 0.00 0.00 0.00 75 1017.8
20260506122757 -8 310 0.0 0.0 0.00 0.00 0.00 75 1017.8
20260506121758 -8 310 0.0 0.0 0.00 0.00 0.00 75 1017.8
20260506120754 -9 310 0.0 3.2 0.00 0.00 0.00 76 1017.7
20260506115812 -9 309 1.6 1.6 0.00 0.00 0.00 75 1017.7
20260506114808 -9 309 0.0 0.0 0.00 0.00 0.00 75 1017.8
20260506113749 -8 310 0.0 0.0 0.00 0.00 0.00 74 1017.7
20260506112807 -8 310 0.0 0.0 0.00 0.00 0.00 73 1017.8
20260506111743 -8 309 0.0 0.0 0.00 0.00 0.00 72 1017.8
20260506110742 -8 309 1.6 3.2 0.00 0.00 0.00 72 1017.8
20260506105742 -8 309 0.0 1.6 0.00 0.00 0.00 73 1017.8
20260506104742 -8 310 0.0 4.8 0.00 0.00 0.00 72 1017.8
20260506103747 -8 310 3.2 4.8 0.00 0.00 0.00 72 1017.6
20260506102746 -8 310 0.0 1.6 0.00 0.00 0.00 73 1017.6
20260506101747 -8 310 0.0 0.0 0.00 0.00 0.00 71 1017.6
20260506100747 -7 309 0.0 3.2 0.00 0.00 0.00 71 1017.7
20260506095751 -7 310 1.6 4.8 0.00 0.00 0.00 72 1017.6
20260506094755 -7 309 3.2 4.8 0.00 0.00 0.00 73 1017.5
20260506093755 -8 310 3.2 3.2 0.00 0.00 0.00 74 1017.5
20260506092754 -8 310 0.0 1.6 0.00 0.00 0.00 74 1017.3
20260506091759 -7 310 0.0 0.0 0.00 0.00 0.00 73 1017.4
20260506090743 -7 309 0.0 0.0 0.00 0.00 0.00 73 1018.3
20260506085803 -7 310 0.0 1.6 0.00 0.00 0.00 73 1018.4
20260506084743 -7 310 0.0 3.2 0.00 0.00 0.00 71 1018.5
20260506083743 -7 310 3.2 4.8 0.00 0.00 0.00 73 1018.4
20260506082743 -7 309 0.0 3.2 0.00 0.00 0.00 73 1018.4
20260506081747 -7 310 0.0 1.6 0.00 0.00 0.00 72 1018.3
20260506080746 -7 310 0.0 0.0 0.00 0.00 0.00 72 1018.3
20260506072755 -6 309 0.0 0.0 0.00 0.00 0.00 71 1018.5
20260506071756 -6 310 0.0 0.0 0.00 0.00 0.00 70 1018.6
20260506070756 -6 309 0.0 3.2 0.00 0.00 0.00 68 1018.6
20260506061808 -5 310 0.0 3.2 0.00 0.00 0.00 64 1018.2